Location: Del Amo
(33.8464°N, 118.2104°W)
Time: 14:20:23
(UTC+00:00)

deb Explorer IX - Visible Passes

Search period start: 13 September 2024 00:00
Search period end: 23 September 2024 00:00
Orbit: 505 x 849 km, 38.7° (Epoch: 13 September)

Date Brightness Start Highest point End Pass type
(mag) Time Alt. Az. Time Alt. Az. Time Alt. Az.
13 Sep ? 02:43:41 10° SSW 02:48:38 28° SE 02:52:37 14° E visible
13 Sep ? 04:26:17 10° WSW 04:30:54 56° WSW 04:30:54 56° WSW visible
14 Sep ? 03:18:14 10° SW 03:24:00 58° SSE 03:26:50 29° E visible
14 Sep ? 05:02:07 10° W 05:05:06 30° W 05:05:06 30° W visible
15 Sep ? 03:53:34 10° WSW 03:59:29 83° NNW 04:00:47 56° ENE visible
15 Sep ? 05:38:03 10° W 05:39:02 15° WNW 05:39:02 15° WNW visible
16 Sep ? 02:45:11 10° SW 02:50:59 69° SSE 02:56:13 13° ENE visible
16 Sep ? 04:29:15 10° W 04:34:28 56° NW 04:34:28 56° NW visible
17 Sep ? 03:20:27 10° WSW 03:26:19 74° NNW 03:29:41 27° ENE visible
17 Sep ? 05:04:54 10° WNW 05:07:54 29° WNW 05:07:54 29° WNW visible
18 Sep ? 02:11:48 10° WSW 02:17:32 81° SSE 02:23:28 10° ENE visible
18 Sep ? 03:55:56 10° W 04:01:43 56° N 04:02:57 47° NE visible
18 Sep ? 05:40:19 10° WNW 05:41:09 14° WNW 05:41:09 14° WNW visible
19 Sep ? 02:46:56 10° W 02:52:42 67° NNW 02:57:49 14° ENE visible
19 Sep ? 04:31:19 10° WNW 04:36:01 47° NNW 04:36:01 47° NNW visible
20 Sep ? 03:22:13 10° W 03:27:55 53° N 03:30:45 29° ENE visible
20 Sep ? 05:06:26 10° WNW 05:08:56 26° WNW 05:08:56 26° WNW visible
21 Sep ? 02:13:03 10° W 02:18:39 61° NNW 02:24:30 10° ENE visible
21 Sep ? 03:57:19 10° WNW 04:03:03 54° N 04:03:31 53° NNE visible
21 Sep ? 05:41:19 10° WNW 05:41:42 12° WNW 05:41:42 12° WNW visible
22 Sep ? 02:48:05 10° WNW 02:53:40 52° N 02:58:01 17° ENE visible
22 Sep ? 04:32:08 10° WNW 04:36:11 44° NW 04:36:11 44° NW visible
